EW8782 Weather Reports


time (UTC)temp
F
wind
direction
speed
knots
gust
knots
rain 1hr
in
rain 24hr
in
rain mn
in
humidity
%
barometer
mb
20260507093935 58 8 3.5 7.8 0.00 0.11 0.00 73 1015.2
20260507092933 57 303 2.6 7.8 0.00 0.12 0.00 75 1015.2
20260507091934 56 7 1.7 5.2 0.00 0.13 0.00 79 1015.2
20260507090934 55 327 1.7 5.2 0.00 0.13 0.00 80 1015.1
20260507085933 54 309 1.7 4.3 0.00 0.13 0.00 80 1015.1
20260507084934 54 0 2.6 6.1 0.00 0.14 0.00 82 1015.1
20260507083942 53 0 0.9 5.2 0.00 0.14 0.00 80 1015.1
20260507083411 53 310 1.7 4.3 0.00 0.15 0.00 82 1015.0
20260507081933 53 13 4.3 6.1 0.00 0.15 0.00 82 1015.0
20260507080935 52 298 2.6 5.2 0.00 0.15 0.00 84 1015.0
20260507075934 52 324 2.6 6.1 0.00 0.16 0.00 84 1014.9
20260507074936 51 345 0.9 4.3 0.00 0.17 0.00 85 1014.8
20260507073937 51 286 1.7 5.2 0.00 0.17 0.00 86 1014.8
20260507072935 50 345 3.5 5.2 0.00 0.17 0.00 87 1014.8
20260507071934 50 307 2.6 4.3 0.00 0.18 0.00 88 1014.6
20260507070936 49 7 2.6 4.3 0.00 0.19 0.00 88 1014.5
20260507065935 49 0 4.3 6.1 0.00 0.20 0.00 88 1014.5
20260507064936 48 307 2.6 5.2 0.00 0.20 0.00 89 1014.5
20260507063935 48 313 2.6 5.2 0.00 0.20 0.00 89 1014.4
20260507062934 48 0 2.6 5.2 0.00 0.21 0.00 89 1014.4
20260507062411 47 0 3.5 7.8 0.00 0.22 0.00 90 1014.2
20260507060936 47 343 3.5 7.8 0.00 0.22 0.00 90 1014.2
20260507055935 47 320 3.5 5.2 0.00 0.22 0.00 91 1014.0
20260507054936 47 357 2.6 5.2 0.00 0.23 0.00 91 1014.0
20260507053936 47 310 3.5 5.2 0.00 0.23 0.00 91 1014.0
20260507052936 47 0 2.6 6.1 0.00 0.24 0.00 91 1014.0
20260507051934 47 302 2.6 6.1 0.00 0.25 0.00 91 1013.8
20260507050936 47 314 5.2 7.8 0.00 0.27 0.00 91 1013.6
20260507045934 47 321 2.6 6.1 0.00 0.28 0.00 91 1013.5
20260507044934 47 320 3.5 6.1 0.00 0.29 0.00 91 1013.4
20260507044405 48 312 2.6 5.2 0.00 0.31 0.00 91 1013.3
20260507042934 48 351 3.5 6.1 0.00 0.32 0.00 91 1013.1
20260507041937 48 329 3.5 5.2 0.00 0.34 0.00 91 1013.0
20260507040938 48 299 2.6 5.2 0.00 0.35 0.00 91 1013.0
20260507035935 48 305 2.6 5.2 0.00 0.36 0.00 90 1012.9
20260507034934 48 317 2.6 4.3 0.00 0.38 0.00 90 1012.8
20260507033935 48 353 3.5 7.8 0.00 0.39 0.00 90 1012.8
20260507032936 48 0 3.5 6.1 0.00 0.41 0.00 90 1012.9
20260507031935 48 316 2.6 4.3 0.00 0.42 0.00 90 1012.9
20260507030934 48 316 2.6 6.1 0.00 0.43 0.00 90 1012.8
20260507030411 49 336 2.6 4.3 0.00 0.44 0.00 90 1012.7
20260507024934 49 313 2.6 5.2 0.00 0.45 0.00 90 1012.6
20260507023931 49 292 3.5 5.2 0.00 0.46 0.00 90 1012.7
20260507023405 49 306 2.6 4.3 0.00 0.48 0.00 90 1012.5
20260507022408 49 330 1.7 3.5 0.00 0.50 0.00 90 1012.5
20260507020936 49 312 1.7 3.5 0.00 0.50 0.00 90 1012.5
20260507015932 49 313 1.7 3.5 0.00 0.52 0.00 90 1012.5
20260507014932 48 313 1.7 3.5 0.00 0.54 0.00 90 1012.4
20260507013932 48 309 1.7 3.5 0.00 0.54 0.00 90 1012.3
20260507012933 48 306 0.9 4.3 0.00 0.56 0.00 91 1012.3
20260507011934 48 312 1.7 3.5 0.00 0.56 0.00 91 1012.2
20260507011849 48 320 1.7 2.6 0.00 0.57 0.00 92 1012.1
20260507005933 48 320 1.7 2.6 0.00 0.57 0.00 92 1012.1
20260507004933 48 313 0.9 3.5 0.00 0.58 0.00 92 1012.2
20260507003933 48 321 0.9 3.5 0.00 0.59 0.00 92 1012.2
20260507002932 47 331 0.9 3.5 0.00 0.60 0.00 93 1012.2
20260507001932 47 327 0.9 1.7 0.00 0.61 0.00 92 1012.1
20260507000934 47 327 0.9 2.6 0.00 0.61 0.00 92 1012.1
20260506235935 47 327 0.9 1.7 0.00 0.62 0.00 92 1012.0
20260506234932 47 327 0.0 2.6 0.00 0.63 0.00 92 1012.0
20260506233934 47 327 1.7 2.6 0.00 0.64 0.00 92 1012.0
20260506232934 47 327 0.0 1.7 0.00 0.65 0.00 92 1012.0
20260506231933 47 0 0.0 0.0 0.00 0.65 0.00 92 1011.8
20260506230934 47 0 0.0 0.9 0.00 0.66 0.00 91 1011.8
20260506225933 47 0 0.0 1.7 0.00 0.67 0.00 91 1011.8
20260506225413 47 327 0.9 1.7 0.00 0.67 0.00 91 1011.7
20260506223934 47 327 1.7 3.5 0.00 0.68 0.00 91 1011.7
20260506222932 47 324 1.7 2.6 0.00 0.68 0.00 91 1011.6
20260506221932 47 323 1.7 3.5 0.00 0.69 0.00 91 1011.5
20260506220932 47 0 1.7 4.3 0.00 0.69 0.00 91 1011.4
20260506220414 48 348 1.7 5.2 0.00 0.70 0.70 92 1011.3
20260506214931 48 323 2.6 5.2 0.00 0.71 0.70 92 1011.4
20260506213932 48 0 1.7 6.1 0.00 0.71 0.70 92 1011.3
20260506212933 48 16 3.5 6.1 0.00 0.72 0.70 92 1011.3
20260506211932 48 0 3.5 6.1 0.00 0.72 0.70 92 1011.2
20260506210931 48 0 2.6 4.3 0.00 0.72 0.70 92 1011.2
20260506205930 48 358 2.6 5.2 0.00 0.72 0.70 92 1011.1
20260506205415 48 348 3.5 5.2 0.00 0.73 0.70 92 1011.0
20260506203931 49 330 2.6 3.5 0.00 0.73 0.70 92 1011.0
20260506202933 49 344 1.7 5.2 0.00 0.73 0.70 92 1011.1
20260506202409 49 314 3.5 4.3 0.00 0.73 0.70 92 1011.0
20260506200932 49 345 3.5 5.2 0.00 0.74 0.70 93 1011.0
20260506195933 49 317 3.5 6.1 0.00 0.74 0.70 93 1010.9
20260506195412 49 353 1.7 4.3 0.00 0.74 0.70 93 1010.8
20260506193931 49 321 2.6 4.3 0.00 0.74 0.70 93 1010.7
20260506192932 49 334 1.7 4.3 0.00 0.75 0.70 93 1010.6
20260506191930 49 347 2.6 5.2 0.00 0.75 0.70 93 1010.5
20260506191410 49 295 2.6 5.2 0.00 0.75 0.70 92 1010.5
20260506185931 49 316 3.5 6.1 0.00 0.75 0.70 92 1010.3
20260506184932 49 336 3.5 8.7 0.00 0.75 0.70 92 1010.3
20260506183932 49 327 3.5 4.3 0.00 0.75 0.70 92 1010.2
20260506182931 49 350 2.6 6.1 0.00 0.75 0.70 92 1010.1
20260506181932 49 0 1.7 6.1 0.00 0.75 0.70 92 1009.9
20260506180930 49 344 4.3 8.7 0.00 0.75 0.70 92 1009.9
20260506175932 49 0 2.6 4.3 0.00 0.75 0.70 91 1009.8
20260506174931 49 3 3.5 8.7 0.00 0.75 0.70 91 1009.7
20260506173930 49 357 6.1 9.6 0.00 0.75 0.70 91 1009.6
20260506172932 49 355 3.5 7.8 0.00 0.75 0.70 91 1009.5
20260506171931 49 11 3.5 10.4 0.00 0.75 0.70 91 1009.4
20260506170928 49 8 2.6 8.7 0.00 0.75 0.70 91 1009.1
20260506165928 49 0 1.7 8.7 0.00 0.75 0.70 91 1009.1
20260506164927 49 343 3.5 8.7 0.00 0.75 0.70 90 1009.1
20260506163931 49 4 3.5 8.7 0.00 0.75 0.70 90 1009.0
20260506162927 50 28 4.3 7.8 0.00 0.75 0.70 91 1009.0
20260506161928 49 0 5.2 9.6 0.00 0.75 0.70 90 1008.9
20260506160927 50 0 4.3 9.6 0.00 0.75 0.70 90 1008.8
20260506155926 50 0 3.5 7.8 0.00 0.75 0.70 91 1008.8
20260506154926 50 0 3.5 6.1 0.00 0.75 0.70 91 1008.8
20260506153926 50 0 3.5 10.4 0.00 0.75 0.70 91 1008.8
20260506152926 50 0 4.3 6.1 0.00 0.75 0.70 91 1008.8
20260506151926 49 340 3.5 8.7 0.01 0.75 0.70 92 1008.7
20260506151407 49 358 6.1 9.6 0.01 0.75 0.70 92 1008.7
20260506145928 49 350 5.2 7.8 0.01 0.74 0.70 92 1008.7
20260506144925 49 313 5.2 7.8 0.01 0.74 0.70 92 1008.7
20260506143926 49 326 3.5 7.8 0.01 0.74 0.70 92 1008.7
20260506142925 49 320 3.5 8.7 0.01 0.74 0.70 92 1008.7
20260506141927 50 336 4.3 10.4 0.00 0.74 0.69 92 1008.6
20260506140926 50 0 6.1 10.4 0.00 0.74 0.69 92 1008.6
20260506135924 50 4 3.5 7.8 0.00 0.74 0.69 92 1008.6
20260506135402 50 354 4.3 8.7 0.00 0.74 0.69 92 1008.5
20260506133926 50 350 3.5 8.7 0.00 0.74 0.69 93 1008.5
20260506133414 50 307 3.5 9.6 0.00 0.74 0.69 93 1008.6
20260506131925 49 0 4.3 9.6 0.01 0.74 0.69 93 1008.5
20260506130922 49 350 4.3 10.4 0.02 0.74 0.69 93 1008.4
20260506125923 49 350 5.2 9.6 0.02 0.72 0.69 93 1008.3
20260506124922 49 309 4.3 7.8 0.03 0.72 0.69 93 1008.2
20260506124403 49 331 5.2 10.4 0.03 0.72 0.69 93 1008.2
20260506122922 49 305 3.5 6.1 0.04 0.72 0.69 93 1008.2
20260506121922 49 0 4.3 10.4 0.03 0.72 0.69 93 1008.1
20260506120925 49 355 4.3 9.6 0.03 0.72 0.68 93 1008.0
20260506115921 49 345 6.1 13.0 0.02 0.69 0.67 93 1008.0
20260506114922 49 347 6.1 10.4 0.02 0.69 0.66 93 1007.9
20260506113921 49 7 0.9 9.6 0.03 0.69 0.66 94 1007.9
20260506112922 49 347 3.5 13.9 0.04 0.69 0.65 94 1007.8
20260506111921 49 0 6.1 10.4 0.05 0.69 0.65 93 1007.8
20260506110920 49 343 5.2 10.4 0.05 0.69 0.65 94 1007.7
20260506105921 49 0 4.3 10.4 0.05 0.65 0.65 94 1007.7
20260506104920 49 0 3.5 12.2 0.05 0.65 0.64 94 1007.7
20260506104406 49 320 5.2 13.9 0.04 0.65 0.63 94 1007.7
20260506102920 49 357 6.1 14.8 0.03 0.65 0.61 94 1007.6
20260506101921 50 303 7.0 12.2 0.03 0.65 0.61 94 1007.4
20260506101354 50 326 4.3 8.7 0.03 0.65 0.60 94 1007.4
20260506095921 50 0 4.3 8.7 0.03 0.61 0.60 94 1007.3
20260506094920 50 340 4.3 8.7 0.03 0.61 0.59 94 1007.2